Location: ??????????
(31.2156°N, 29.9553°E)
Time: 08:49:17
(UTC+00:00)

Cosmos 1939 Rocket - Pass Details

Date: 03 March 2021
Orbit: 534 x 582 km, 97.4° (Epoch: 15 April)

Event Time Altitude Azimuth Distance (km) Brightness Sun altitude
Rises 16:18:28 0° 178° (S) 2,674 6.4 -4.8°
Reaches altitude 10° 16:20:37 10° 183° (S) 1,783 5.5 -5.2°
Maximum altitude 16:24:21 51° 260° (W) 675 3.8 -6.0°
Drops below altitude 10° 16:28:07 10° 337° (NNW) 1,789 5.7 -6.8°
Sets 16:30:17 0° 343° (NNW) 2,684 6.5 -7.3°
